Hugo, OK

12:37 PM CST on February 13, 2016 (GMT -0600)
Stamper Municipal

Weather History for KHHW - February, 2013

Change the Weather History Date:

Wednesday, February 27, 2013

  Actual Average Record
Temperature  
Mean Temperature 42 °F -  
Max Temperature 53 °F 62 °F 57 °F (2014)
Min Temperature 31 °F 38 °F 21 °F (2015)
Degree Days  
Heating Degree Days 23    
Moisture  
Dew Point 28 °F    
Average Humidity 60    
Maximum Humidity 91    
Minimum Humidity 32    
Precipitation  
Precipitation 0.00 in - - ()
Sea Level Pressure  
Sea Level Pressure 30.04 in    
Wind  
Wind Speed 8 mph (NW)    
Max Wind Speed 20 mph    
Max Gust Speed 28 mph    
Visibility 10 miles    
Events      
Averages and records for this station are not official NWS values.
T = Trace of Precipitation, MM = Missing Value Source: NWS Daily Summary

Daily Weather History Graph

Daily Weather History Graph

Search for Another Location

Airport or City:

Trip Planner

Search our weather history database for the weather conditions in past years. The results will help you decide how hot, cold, wet, or windy it might be!

Date:

Astronomy

Feb. 27, 2013 Rise Set
Actual Time 6:52 AM CST 6:17 PM CST
Civil Twilight 6:27 AM CST 6:42 PM CST
Nautical Twilight 5:58 AM CST 7:11 PM CST
Astronomical Twilight 5:29 AM CST 7:40 PM CST
Moon 8:30 PM CST (2/27) 7:36 AM CST (2/27)
Length of Visible Light 12h 14m
Length of Day
11h 24m
Waning Gibbous, 96% of the Moon is Illuminated
Feb 27
Waning Gibbous
Mar 4
Last Quarter
Mar 11
New
Mar 19
First Quarter
Mar 27
Full

Hourly Weather History & Observations

Time (CST) Temp. Windchill Dew Point Humidity Pressure Visibility Wind Dir Wind Speed Gust Speed Precip Events Conditions
12:15 AM 37.6 °F 34.0 °F 27.5 °F 67% 29.90 in 10.0 mi North 4.6 mph - N/A   Clear
12:35 AM 37.6 °F - 27.3 °F 66% 29.90 in 10.0 mi Calm Calm - N/A   Clear
12:55 AM 36.7 °F - 27.5 °F 69% 29.90 in 10.0 mi North - - N/A   Clear
1:15 AM 35.8 °F - 27.3 °F 71% 29.91 in 10.0 mi Calm Calm - N/A   Clear
1:35 AM 36.3 °F - 27.9 °F 71% 29.91 in 10.0 mi Calm Calm - N/A   Clear
1:55 AM 35.1 °F 32.2 °F 27.5 °F 74% 29.92 in 10.0 mi NNW 3.5 mph - N/A   Clear
2:15 AM 34.2 °F - 28.2 °F 79% 29.92 in 10.0 mi Calm Calm - N/A   Clear
2:35 AM 33.1 °F 30.0 °F 28.2 °F 82% 29.92 in 10.0 mi NW 3.5 mph - N/A   Clear
2:55 AM 34.0 °F 29.8 °F 28.4 °F 80% 29.91 in 10.0 mi NNW 4.6 mph - N/A   Clear
3:15 AM 33.1 °F 26.9 °F 28.8 °F 84% 29.90 in 10.0 mi North 6.9 mph - N/A   Clear
3:35 AM 32.0 °F 25.6 °F 28.4 °F 87% 29.93 in 10.0 mi West 6.9 mph - N/A   Clear
3:55 AM 32.2 °F 27.7 °F 29.3 °F 89% 29.94 in 10.0 mi West 4.6 mph - N/A   Clear
4:15 AM 32.4 °F 27.9 °F 29.3 °F 88% 29.95 in 10.0 mi West 4.6 mph - N/A   Clear
4:55 AM 31.6 °F 28.3 °F 28.8 °F 89% 29.94 in 10.0 mi NW 3.5 mph - N/A   Clear
5:15 AM 31.5 °F 26.8 °F 28.9 °F 90% 29.95 in 10.0 mi NW 4.6 mph - N/A   Clear
5:35 AM 32.0 °F 26.4 °F 29.7 °F 91% 29.96 in 10.0 mi NW 5.8 mph - N/A   Mostly Cloudy
5:55 AM 33.1 °F 28.7 °F 30.2 °F 89% 29.96 in 10.0 mi NW 4.6 mph - N/A   Overcast
6:15 AM 33.8 °F 27.7 °F 30.7 °F 89% 29.98 in 10.0 mi NW 6.9 mph - N/A   Overcast
6:35 AM 34.2 °F 27.5 °F 30.9 °F 88% 30.00 in 10.0 mi WNW 8.1 mph - N/A   Overcast
6:55 AM 34.0 °F 26.6 °F 31.1 °F 89% 30.02 in 10.0 mi WNW 9.2 mph - N/A   Overcast
7:15 AM 34.2 °F 26.8 °F 31.5 °F 90% 30.02 in 7.0 mi NW 9.2 mph - N/A   Overcast
7:35 AM 34.7 °F 29.6 °F 31.5 °F 88% 30.03 in 10.0 mi NW 5.8 mph - N/A   Overcast
7:55 AM 35.1 °F 31.0 °F 31.6 °F 87% 30.04 in 10.0 mi WNW 4.6 mph - N/A   Overcast
8:15 AM 35.8 °F 33.0 °F 32.0 °F 86% 30.04 in 10.0 mi WNW 3.5 mph - N/A   Overcast
8:35 AM 36.3 °F 30.1 °F 32.0 °F 84% 30.05 in 10.0 mi West 8.1 mph - N/A   Overcast
9:15 AM 39.0 °F 32.3 °F 32.0 °F 76% 30.06 in 10.0 mi NW 10.4 mph 16.1 mph N/A   Scattered Clouds
9:35 AM 41.5 °F 35.0 °F 32.0 °F 69% 30.06 in 10.0 mi NW 11.5 mph - N/A   Scattered Clouds
9:55 AM 42.1 °F 35.7 °F 31.8 °F 67% 30.06 in 10.0 mi NW 11.5 mph 16.1 mph N/A   Clear
10:15 AM 43.7 °F 38.6 °F 31.6 °F 63% 30.06 in 10.0 mi NNW 9.2 mph 12.7 mph N/A   Clear
10:35 AM 45.1 °F 39.5 °F 30.6 °F 57% 30.07 in 10.0 mi NNW 11.5 mph 17.3 mph N/A   Clear
10:55 AM 46.8 °F - 28.9 °F 50% 30.06 in 10.0 mi NNW 11.5 mph - N/A   Clear
11:15 AM 48.0 °F - 29.1 °F 48% 30.07 in 10.0 mi NW 10.4 mph 18.4 mph N/A   Clear
11:35 AM 48.4 °F - 28.0 °F 45% 30.08 in 10.0 mi NW 12.7 mph 18.4 mph N/A   Clear
11:55 AM 49.5 °F - 27.1 °F 42% 30.07 in 10.0 mi WNW 17.3 mph 25.3 mph N/A   Clear
12:15 PM 49.5 °F - 28.0 °F 44% 30.07 in 10.0 mi WNW 15.0 mph 23.0 mph N/A   Clear
12:35 PM 50.5 °F - 29.3 °F 44% 30.07 in 10.0 mi NW 16.1 mph 23.0 mph N/A   Scattered Clouds
12:55 PM 50.7 °F - 29.3 °F 44% 30.06 in 10.0 mi NW 17.3 mph 25.3 mph N/A   Scattered Clouds
1:15 PM 50.9 °F - 29.8 °F 44% 30.06 in 10.0 mi NW 13.8 mph 23.0 mph N/A   Scattered Clouds
1:35 PM 50.0 °F - 29.7 °F 46% 30.06 in 10.0 mi NW 19.6 mph 25.3 mph N/A   Scattered Clouds
1:55 PM 52.2 °F - 30.0 °F 43% 30.06 in 10.0 mi WNW 15.0 mph 27.6 mph N/A   Mostly Cloudy
2:15 PM 52.2 °F - 29.7 °F 42% 30.06 in 10.0 mi NW 15.0 mph 24.2 mph N/A   Scattered Clouds
2:35 PM 52.5 °F - 29.7 °F 42% 30.06 in 10.0 mi NW 16.1 mph 26.5 mph N/A   Scattered Clouds
2:55 PM 52.0 °F - 29.1 °F 41% 30.06 in 10.0 mi WNW 13.8 mph 23.0 mph N/A   Scattered Clouds
3:15 PM 53.2 °F - 30.0 °F 41% 30.06 in 10.0 mi NNW 18.4 mph 24.2 mph N/A   Scattered Clouds
3:35 PM 53.2 °F - 28.8 °F 39% 30.05 in 10.0 mi WNW 13.8 mph 18.4 mph N/A   Scattered Clouds
3:55 PM 53.8 °F - 29.5 °F 39% 30.05 in 10.0 mi NW 16.1 mph 21.9 mph N/A   Clear
4:15 PM 53.4 °F - 28.9 °F 39% 30.06 in 10.0 mi NW 12.7 mph 21.9 mph N/A   Clear
4:35 PM 53.2 °F - 27.0 °F 36% 30.06 in 10.0 mi WNW 16.1 mph 24.2 mph N/A   Clear
4:55 PM 52.7 °F - 26.2 °F 36% 30.05 in 10.0 mi NW 18.4 mph 25.3 mph N/A   Clear
5:15 PM 52.7 °F - 23.7 °F 32% 30.06 in 10.0 mi WNW 15.0 mph 23.0 mph N/A   Clear
5:35 PM 51.3 °F - 22.3 °F 32% 30.06 in 10.0 mi NW 16.1 mph 25.3 mph N/A   Clear
5:55 PM 50.2 °F - 21.9 °F 33% 30.06 in 10.0 mi NW 15.0 mph 19.6 mph N/A   Clear
6:15 PM 48.7 °F - 20.5 °F 33% 30.07 in 10.0 mi NW 16.1 mph 21.9 mph N/A   Clear
6:35 PM 47.1 °F - 21.4 °F 36% 30.09 in 10.0 mi NW 12.7 mph 20.7 mph N/A   Clear
6:55 PM 46.0 °F 40.6 °F 19.9 °F 35% 30.10 in 10.0 mi NW 11.5 mph 18.4 mph N/A   Clear
7:15 PM 45.3 °F 40.1 °F 20.7 °F 38% 30.10 in 10.0 mi NNW 10.4 mph - N/A   Clear
7:35 PM 44.8 °F 38.3 °F 20.8 °F 39% 30.11 in 10.0 mi NW 13.8 mph - N/A   Clear
7:55 PM 43.7 °F 38.1 °F 21.7 °F 42% 30.11 in 10.0 mi NW 10.4 mph - N/A   Clear
8:15 PM 43.2 °F 36.6 °F 22.6 °F 44% 30.13 in 10.0 mi NW 12.7 mph 18.4 mph N/A   Clear
8:35 PM 43.3 °F 36.1 °F 23.7 °F 46% 30.13 in 10.0 mi NNW 15.0 mph 20.7 mph N/A   Clear
8:55 PM 42.1 °F 36.1 °F 25.0 °F 51% 30.14 in 10.0 mi NNW 10.4 mph 18.4 mph N/A   Clear
9:15 PM 41.4 °F 34.7 °F 25.5 °F 53% 30.15 in 10.0 mi NW 11.5 mph 19.6 mph N/A   Clear
9:35 PM 40.3 °F 33.0 °F 25.7 °F 56% 30.16 in 10.0 mi NW 12.7 mph - N/A   Clear
9:55 PM 39.7 °F 33.2 °F 25.7 °F 57% 30.17 in 10.0 mi NNW 10.4 mph - N/A   Clear
10:15 PM 39.2 °F 32.0 °F 25.7 °F 58% 30.17 in 10.0 mi NW 11.5 mph 16.1 mph N/A   Clear
10:35 PM 39.2 °F 33.0 °F 25.7 °F 58% 30.18 in 10.0 mi NW 9.2 mph - N/A   Clear
10:55 PM 37.8 °F 31.8 °F 26.2 °F 63% 30.17 in 10.0 mi NW 8.1 mph - N/A   Clear
11:15 PM 37.0 °F 30.4 °F 27.0 °F 67% 30.17 in 10.0 mi NW 9.2 mph - N/A   Clear
11:35 PM 36.7 °F 29.9 °F 26.6 °F 67% 30.17 in 10.0 mi NW 9.2 mph - N/A   Clear